Location: ????????
(55.6189°N, 38.3031°E)
Time: 07:44:10
(UTC+00:00)

Cosmos 1980 Rocket - Pass Details

Date: 15 November 2019
Orbit: 827 x 851 km, 71.0° (Epoch: 07 December)

Event Time Altitude Azimuth Distance (km) Brightness Sun altitude
Exits shadow 03:48:20 11° 268° (W) 2,438 4.0 -10.0°
Maximum altitude 03:48:23 11° 267° (W) 2,438 4.0 -10.0°
Drops below altitude 10° 03:49:33 10° 255° (WSW) 2,481 4.1 -9.9°
Sets 03:54:20 0° 219° (SW) 3,404 5.1 -9.2°
